Regional Weather Roundup
Issued by NWS Memphis, TN

Home | Current Version | Previous Version | Text Only | Print | Product List | Glossary On
Versions: 1 2 3 4 5 6 7 8 9 10 11 12 13 14 15 16 17 18 19 20 21 22 23 24 25 26 27 28 29 30 31 32 33 34 35 36 37 38 39 40 41 42 43 44 45 46 47 48 49 50
000
ASUS44 KMEG 291510
RWRMEG
MEMPHIS CWA HOURLY WEATHER ROUNDUP
NATIONAL WEATHER SERVICE MEMPHIS TN
1000 AM CDT SUN MAY 29 2016

...WEST TENNESSEE...

CITY           SKY/WX    TMP DP  RH WIND       PRES   REMARKS
MEMPHIS INTL   CLOUDY    83  71  67 CALM      30.13F
NWS MEMPHIS      N/A     80 N/A N/A MISG        N/A
JACKSON        MOSUNNY   79  69  71 SW6       30.13F
LEXINGTON      MOSUNNY   81  70  69 W5        30.13F
DYERSBURG      MOSUNNY   79  68  69 W7        30.12S
UNION CITY     SUNNY     81  70  69 SW3       30.10F
PARIS          MOSUNNY   79  66  65 CALM      30.13F


...EASTERN ARKANSAS...

CITY           SKY/WX    TMP DP  RH WIND       PRES   REMARKS
JONESBORO      SUNNY     80  69  69 CALM      30.11S
WEST MEMPHIS   CLOUDY    78  71  79 CALM      30.11F
BATESVILLE     PTSUNNY   77  70  78 CALM      30.13S
NEWPORT        MOSUNNY   79  69  71 W5        30.13F
WALNUT RIDGE   SUNNY     75  66  73 CALM      30.11F
BLYTHEVILLE    MOSUNNY   78  70  76 VRB5      30.12S
SEARCY         PTSUNNY   79  72  78 VRB3      30.14S
STUTTGART      SUNNY     81  70  69 W6        30.14R
PINE BLUFF     MOSUNNY   79  69  71 NW3       30.14S
MONTICELLO     MOSUNNY   83  71  67 CALM      30.14S


...NORTH MISSISSIPPI...

CITY           SKY/WX    TMP DP  RH WIND       PRES   REMARKS
TUPELO         MOSUNNY   81  69  67 VRB5      30.14F
OXFORD         MOSUNNY   81  66  61 N9        30.16F
BATESVILLE     SUNNY     79  71  75 CALM      30.15S
OLIVE BRANCH   MOSUNNY   79  75  89 CALM      30.13F
TUNICA         SUNNY     77  72  83 S3        30.14S
CLARKSDALE     MOSUNNY   81  75  83 CALM      30.14S
CORINTH        MOSUNNY   79  68  69 CALM      30.14S
GREENWOOD      PTSUNNY   81  69  67 CALM      30.14F
COLUMBUS       SUNNY     82  69  66 N5        30.13F
STARKVILLE     SUNNY     81  70  69 CALM      30.13F
GOLDEN TRIANGL MOSUNNY   82  70  65 NW5       30.14F


...SOUTHEAST MISSOURI...

CITY           SKY/WX    TMP DP  RH WIND       PRES   REMARKS
KENNETT        MOSUNNY   79  72  78 SW3       30.10S
WEST PLAINS    MOSUNNY   78  65  63 W6        30.17R
POPLAR BLUFF   SUNNY     79  69  71 CALM      30.11R
CAPE GIRARDEAU SUNNY     77  69  76 CALM      30.10S


...NORTHWEST ALABAMA...

CITY           SKY/WX    TMP DP  RH WIND       PRES   REMARKS
MUSCLE SHOALS  SUNNY     83  66  56 W8        30.16F


...MIDDLE TENNESSEE...

CITY           SKY/WX    TMP DP  RH WIND       PRES   REMARKS
NASHVILLE      MOSUNNY   82  66  58 NW6       30.14F
CLARKSVILLE    MOSUNNY   78  69  73 W6        30.13F
COLUMBIA       MOSUNNY   81  79  94 VRB3      30.14S


...WESTERN KENTUCKY...

CITY           SKY/WX    TMP DP  RH WIND       PRES   REMARKS
PADUCAH        MOSUNNY   80  68  66 VRB5      30.10S
FORT CAMPBELL  MOSUNNY   79  71  77 W3        30.13S


...CENTRAL ARKANSAS...

CITY           SKY/WX    TMP DP  RH WIND       PRES   REMARKS
LITTLE ROCK    PTSUNNY   83  69  62 N6        30.13R


SKY/WX REPORTED AS FAIR MEANS FEW OR NO CLOUDS BELOW
12 THOUSAND FEET.





USA.gov is the U.S. government's official web portal to all federal, state and local government web resources and services.